Retour au catalogue

BREEZE-M DEB

LostHEO
NORAD 38598·DEBRIS·🇷🇺 Russia

Lancé Mar 14, 2008 depuis Baikonur Cosmodrome

Loading…

Prochains Passages (prochaines 24 heures)

TLE

PériméSource: Space-Track

Époque: Jul 28, 2022, 08:58 UTC

1 38598U 08011AV  22209.37380932  .00000703  00000-0  17938-1 0  9992
2 38598  49.0915  68.4114 6408688 218.5342 352.8776  3.09084655128843

Suivez BREEZE-M DEB en temps réel avec AllMySat

Download on the App Store